Torna al catalogo

THORAD DELTA 1 DEB

AttivoLEO
NORAD 8161·DEBRIS·🇺🇸 United States

Lanciato Nov 15, 1974 da Vandenberg Space Force Base

Loading…

Prossimi Passaggi (prossime 24 ore)

TLE

AggiornatoSource: Space-Track

Epoca: Sep 14, 2026, 13:27 UTC

1 08161U 74089AB  26257.56072333 -.00000122  00000-0 -87658-3 0  9999
2 08161 101.2083 278.6287 0371569 354.0380 160.5563 11.99604302598404

Traccia THORAD DELTA 1 DEB in tempo reale con AllMySat

Download on the App Store